Regional Weather Roundup
Issued by NWS Northern Indiana

Home | Current Version | Previous Version | Text Only | Print | Product List | Glossary On
Versions: 1 2 3 4 5 6 7 8 9 10 11 12 13 14 15 16 17 18 19 20 21 22 23 24 25 26 27 28 29 30 31 32 33 34 35 36 37 38 39 40 41 42 43 44 45 46 47 48 49 50
000
ASUS43 KIWX 230410
RWRIWX

KIWX WEATHER ROUNDUP
NATIONAL WEATHER SERVICE NORTHERN INDIANA
1100 PM EST WED FEB 22 2017

NOTE: "FAIR" INDICATES FEW OR NO CLOUDS BELOW 12,000 FEET WITH NO
SIGNIFICANT WEATHER AND/OR OBSTRUCTIONS TO VISIBILITY.

* THESE STATIONS ARE NOT UNDER NWS QUALITY CONTROL. THEY ALSO MAY NOT
  REPORT WEATHER SUCH AS PRECIPITATION OR FOG.

INZ001>027-230500-
NORTHERN INDIANA

CITY           SKY/WX    TMP DP  RH WIND       PRES   REMARKS
GARY*          CLEAR     61  54  78 S7        29.64F
VALPARAISO     CLEAR     58  54  86 S10       29.67F
MICHIGAN CITY* CLEAR     59  54  82 S9G22     29.65F
LAPORTE*       CLEAR     56  53  88 S9        29.67F
KNOX*          CLEAR     55  37  50 S13       29.68S
SOUTH BEND     MOCLDY    58  53  84 S14       29.67F
GOSHEN         MOCLDY    57  51  80 S12       29.69R
MONTICELLO*    CLEAR     58  53  83 S8        29.70R
LOGANSPORT*    CLEAR     54  50  87 S8        29.72R
ROCHESTER*     CLEAR     61  54  77 S10G17    29.71R
WARSAW*        MOCLDY    55  52  88 S3        29.70R
ANGOLA*        CLEAR     54  45  71 S5        29.70S
FORT WAYNE     PTCLDY    55  51  86 S10       29.72F
HUNTINGTON*    CLEAR     55  54  95 S5        29.72S
PERU/GRISSOM   CLEAR     55  55 100 S9        29.70S
MARION*        CLEAR     53  52  94 S8        29.74S

$$
INZ028>050-230500-
CENTRAL INDIANA

CITY           SKY/WX    TMP DP  RH WIND       PRES   REMARKS
LAFAYETTE      CLEAR     59  54  83 SW7       29.70S
KOKOMO*        CLEAR     55  53  93 S9        29.73S
MUNCIE*        PTCLDY    60  54  80 S13       29.73F
INDIANAPOLIS   PTCLDY    59  53  80 S12       29.73F

$$
MIZ043>046-050>051-056>058-064>065-071>073-077>080-230500-
SOUTHWEST LOWER MICHIGAN

CITY           SKY/WX    TMP DP  RH WIND       PRES   REMARKS
BATTLE CREEK   PTCLDY    56  53  90 S15       29.66F
BENTON HARBOR  CLEAR     59  53  80 S12       29.63F
COLDWATER*     CLEAR     56  54  91 S9G16     29.68F
HILLSDALE*     CLEAR     54  52  94 S12       29.69F
HOLLAND        CLEAR     58  53  84 S14       29.60F
GRAND RAPIDS   CLEAR     56  51  84 S12       29.61F
KALAMAZOO      MOCLDY    55  50  83 S13       29.66F
STURGIS*       PTCLDY    54  52  93 S9        29.68S
THREE RIVERS*  MOCLDY    54  52  91 S10       29.67S

$$
OHZ001>008-015>018-024>025-230500-
NORTHWEST OHIO

CITY           SKY/WX    TMP DP  RH WIND       PRES   REMARKS
WAUSEON*       FAIR      55  54  94 S13       29.71F
DEFIANCE       CLEAR     55  51  86 S8        29.72F
FINDLAY        PTCLDY    57  52  83 S12       29.73F
TOLEDO EXPRESS CLEAR     56  55  97 S9        29.71F FOG
TOLEDO METCALF CLEAR     57  55  93 S12       29.72F FOG
LIMA           MOCLDY    57  56  96 S10       29.75F

$$
AND FOR LAKE MICHIGAN COASTAL AND OPEN LAKE BUOY OBSERVATIONS

STATION/POSITION TEMP    WIND        PRES    VSBY  WAVE
                 AIR SEA DIR/SP/G                  HT/PER
                 (F)     (DEG/KT/KT) (MB)    (MI)  (FT/S)
CALUMET HARBOR    60     200/ 11/ 14 1002.9F
MICHIGAN CITY     60     160/ 17/ 21   N/A
BURNS HARBOR      59     190/ 15/ 21 1004.4S

$$
&&




USA.gov is the U.S. government's official web portal to all federal, state and local government web resources and services.